IRNSS-1C

Last updated on Wed Oct 29 2025 00:02:48 GMT+0000 (Coordinated Universal Time)

1 40269U 14061A 25301.48852271 -.00000148 00000+0 00000+0 0 9993 2 40269 5.9232 93.5352 0018679 4.2820 198.0590 1.00274956 40367
UTC large
Height (km)
Speed (km/s)
/
Latitude / Longitude
Inclination (degrees)
Orbital Period (minutes)
Azimuth
Elevation
Range (km)
Doppler Factor

Next 0 passes for location: London (51.5072 / 0.1276)

Sorry there are no passes over London.